Location: Newark
(35.5470°N, 95.4930°W)
Time: 19:08:22
(UTC+00:00)

N. Korean satellite - Visible Passes

Search period start: 19 February 2020 00:00
Search period end: 29 February 2020 00:00
Orbit: 456 x 505 km, 97.2° (Epoch: 19 February)

Date Brightness Start Highest point End Pass type
(mag) Time Alt. Az. Time Alt. Az. Time Alt. Az.
19 Feb 6.7 12:19:58 10° N 12:23:38 58° WNW 12:27:15 10° SSW visible
20 Feb 7.2 11:54:27 10° NNE 11:58:08 59° E 12:01:46 10° S visible
21 Feb 9.0 11:29:22 10° NE 11:32:33 26° E 11:35:40 10° SSE visible
22 Feb 10.1 11:05:16 10° ENE 11:06:51 12° E 11:08:25 10° ESE visible
22 Feb 7.3 12:36:57 10° N 12:40:19 33° WNW 12:43:39 10° SW visible
23 Feb 6.5 12:11:09 10° N 12:14:52 77° WNW 12:18:32 10° SSW visible
24 Feb 7.9 11:45:46 10° NNE 11:49:19 44° E 11:52:50 10° S visible
25 Feb 9.5 11:20:53 10° NE 11:23:41 20° E 11:26:27 10° SE visible
26 Feb 7.0 12:28:00 10° N 12:31:32 43° WNW 12:35:01 10° SSW visible
27 Feb 10.8 00:36:47 10° W 00:37:05 10° W 00:37:23 10° W visible
27 Feb 6.7 12:02:21 10° NNE 12:06:03 79° E 12:09:41 10° S visible
28 Feb 8.5 11:37:06 10° NNE 11:40:28 33° E 11:43:47 10° SSE visible
